User: anonymous   Login
Location: Unspecified
(0.0000°N, 0.0000°E)
Time: 20:47:07
(UTC+00:00)
Language:

Himawari 3 - Orbit

View from above orbital plane
View from above orbital plane
View from above satellite
View from above satellite

Ground track
Ground track

The orbit is defined by the following mean orbital elements,

1 15152U          26150.54084323 +.00000000 +00000-0 +00000-0 0 00000
2 15152  10.6544 323.7969 0005809 133.7695 224.3935  0.99826905    07
Epoch (UTC): 30 May 2026 12:58:48
Eccentricity: 0.0005809
inclination: 10.6544°
perigee height: 35887 km
apogee height: 35936 km
right ascension of ascending node: 323.7969°
argument of perigee: 133.7695°
revolutions per day: 0.99826905
mean anomaly at epoch: 224.3935°

The dashed part of the orbit path shows where the satellite is in the earth's shadow,  

DLR